STARLINK-1308 (45419 NORAD) Tracking and Keplerian Element Data

This shows tracking and keplerian element data for the satellite.

Feedback or suggestion? Click here.




ElementValue
Catalog45419
NameSTARLINK-1308
Epoch Orbit1116
Epoch Day148.75001157
Epoch Year2020
RAAN287.3208
Inclination53.0293
Eccentricity0.0001288
Argument of Perigee85.739
Mean Anonmoly164.3567
Mean Motion15.05580563
Decay Rate0.00017633
L11 45419U 20019BM 20148.75001157 .00017633 00000-0 12263-2 0 9992
L22 45419 53.0293 287.3208 0001288 85.7390 164.3567 15.05580563 11167

Live tracking and technical data element details for STARLINK-1308 (NORAD 45419). STARLINK-1308 can be tracked NOW for your location showing map with azimuth and elevation plus other details from your city location.

Track the satellite on the map from your city or location and see movement details for azimuth, elevation, latitude, longitude, range, height, and movement on the map or in text.







IsCatalogInMostPopularTable: catalog: 45419, numindb: 59
Update: records affected: 1



GetName: 45419 STARLINK-1308

Hit Count: updated at: Sat, 30 May 2020 15:48:34 GMT